Location: Montestruc
(43.7938°N, 0.6294°E)
Time: 04:17:59
(UTC+00:00)

Daily predictions for brighter satellites

Satellite Brightness Start Highest point End
(mag) Time Altitude Azimuth Time Altitude Azimuth Time Altitude Azimuth
COSMOS 2455 4.2 00:04:46 23° ESE 00:05:42 24° ESE 00:10:21 10° NE
MetOp-A 3.2 00:06:33 79° WNW 00:06:33 79° WNW 00:10:13 10° NNW
Nadezhda 1 Rocket 4.0 00:04:29 44° SSW 00:06:28 70° W 00:12:41 10° N
Cosmos 2082 Rocket 2.5 00:02:47 10° NW 00:08:11 49° WSW 00:09:02 45° SW
Cosmos 2278 Rocket 3.8 00:06:22 13° WSW 00:10:35 28° NW 00:15:27 10° N
NOSS 3-1 (A) 4.5 00:14:36 20° ESE 00:14:36 20° ESE 00:18:07 10° ENE
Cosmos 1110 Rocket 4.4 00:11:05 10° NNW 00:16:01 45° WSW 00:16:32 44° WSW
SL-8 R/B 3.6 00:15:45 46° WSW 00:17:10 84° NNW 00:21:57 10° ENE
CZ-4C R/B 4.4 00:13:58 10° NNE 00:16:54 30° E 00:16:54 30° E
Cosmos 1356 Rocket 4.4 00:14:04 10° N 00:17:46 35° ENE 00:18:25 32° E
Cosmos 1452 Rocket 3.5 00:14:47 10° NNW 00:20:01 67° WSW 00:20:55 56° SSW
USA 308 4.2 00:23:07 24° E 00:23:07 24° E 00:25:12 10° ENE
NOSS 3-1 (C) 2.7 00:22:32 63° SSE 00:23:02 69° ESE 00:28:20 10° NE
CZ-3B R/B 3.9 00:28:33 37° SSW 00:31:35 75° SE 00:57:07 10° NE
Cosmos 967 Rocket 4.5 00:29:04 40° SW 00:31:38 83° WNW 00:38:10 10° NNE
Cosmos 972 Rocket 4.0 00:28:15 10° NNW 00:33:52 69° WSW 00:34:56 54° SSW
COSMOS 2406 3.2 00:30:08 10° NNW 00:35:45 64° WSW 00:37:02 50° SSW
Cosmos 2341 Rocket 3.9 00:29:52 10° N 00:36:08 89° E 00:38:22 43° S
SL-8 Rocket 3.9 00:33:41 10° N 00:39:51 83° W 00:41:58 44° S
SL-4 R/B 2.8 00:42:23 31° ENE 00:42:23 31° ENE 00:44:10 10° ENE
Cosmos 2297 3.7 00:45:21 48° SSW 00:47:01 81° ESE 00:52:47 10° NNE
Cosmos 2369 Rocket 2.1 00:50:46 46° SW 00:52:30 81° WNW 00:58:08 10° NNE
Lacrosse 4 Rocket 2.8 00:49:45 10° NNW 00:53:39 36° NE 00:56:30 16° ESE
DELTA 2 DEB (DPAF) 3.7 00:50:23 10° NNE 00:53:47 64° E 00:53:47 64° E
CZ-2C R/B 3.3 00:55:17 33° WSW 00:56:01 35° W 01:00:46 10° NNW
USA 290 2.8 00:54:39 10° NNW 00:57:15 55° N 00:57:15 55° N
Cosmos 1959 Rocket 4.4 00:51:48 10° N 00:58:01 77° W 01:00:25 40° S
Cosmos 2228 Rocket 3.7 00:59:27 39° W 01:00:06 42° WNW 01:04:17 10° N
ADEOS Rocket 4.0 00:57:14 10° NNE 01:02:54 35° E 01:05:49 22° SE
Geosat 4.5 01:04:38 10° NNE 01:09:29 52° WNW 01:11:26 33° WSW
USA 276 3.8 01:09:04 25° NW 01:09:46 28° NNW 01:12:24 10° NE
Cosmos 1818 3.5 01:09:43 45° SSW 01:11:26 81° ESE 01:16:54 10° NE
In-Cosmos 22 Rocket 4.4 01:09:23 37° SSE 01:11:28 63° E 01:16:58 10° NNE
ARIANE 6 FM1 Upper Stage 3.6 01:16:12 30° W 01:17:39 41° NW 01:21:34 10° NNE
Cosmos 1300 Rocket 3.4 01:13:47 10° N 01:18:08 87° W 01:19:07 53° S
Cosmos 1315 Rocket 4.1 01:16:22 10° NW 01:19:10 25° W 01:19:10 25° W
Cosmos 1703 Rocket 4.1 01:25:41 38° WSW 01:26:34 44° WNW 01:30:46 10° N
Cosmos 2181 Rocket 4.3 01:25:44 33° SW 01:28:25 55° WNW 01:34:41 10° N
ATLAS 5 CENTAUR R/B 3.0 01:30:58 14° WNW 01:31:59 16° NW 01:33:58 10° N
Nadezhda 3 Rocket 3.9 01:29:56 33° S 01:32:56 89° WNW 01:39:14 10° N
Cosmos 1339 Rocket 4.5 01:32:02 30° S 01:35:12 75° E 01:41:17 10° N
Meteor 1-21 Rocket 4.5 01:32:42 30° S 01:35:42 70° E 01:41:36 10° NNE
Cosmos 407 Rocket 4.4 01:37:55 24° SSE 01:40:24 39° ESE 01:45:09 10° NE
PSLV R/B 4.1 01:37:32 10° N 01:41:17 51° WNW 01:42:06 42° WSW
SJ 16-02 2.7 01:39:46 21° SE 01:41:37 29° E 01:45:18 10° NE
Cosmos 921 Rocket 3.1 01:41:10 39° S 01:42:32 63° ESE 01:46:41 10° NNE
USA 308 3.6 01:41:52 26° W 01:43:31 42° NNW 01:47:33 10° NE
Nimbus 7 Rocket 4.3 01:38:38 10° NNE 01:44:33 89° ESE 01:47:36 30° SSW
ACS3 Solar Sail 3.1 01:40:40 10° NNW 01:45:12 25° WNW 01:48:09 17° WSW
Spot 1 4.5 01:44:05 10° N 01:49:01 65° WNW 01:51:01 34° SW
COSMOS 2455 3.1 01:47:52 27° SW 01:51:08 61° NW 01:57:06 10° NNE
IDEFIX/ARIANE 42P 2.5 01:49:17 10° NNE 01:54:33 85° WNW 01:57:12 30° SSW
Cosmos 540 Rocket 4.3 01:50:18 10° N 01:55:16 50° ENE 02:00:11 10° SE
Iridium 82 4.0 02:00:15 56° W 02:00:15 56° W 02:02:59 10° N
SL-19 R/B 4.3 01:59:03 24° SE 02:00:51 59° ENE 02:04:05 10° N
ADEOS II 4.3 01:58:21 10° NE 02:02:01 19° E 02:05:39 10° SE
Meteor 1-11 4.3 02:00:23 24° S 02:03:52 74° E 02:09:30 10° NNE
NOSS 3-1 (A) 3.4 02:01:56 24° WSW 02:04:32 52° NW 02:10:00 10° NNE
Resurs 1-4 Rocket 3.3 02:07:38 10° NNE 02:12:26 35° E 02:17:13 10° SSE
Cosmos 1140 Rocket 4.0 02:11:29 25° SW 02:14:08 47° WNW 02:19:04 10° N
Cosmos 1656 3.9 02:11:00 23° S 02:14:25 63° ESE 02:19:52 10° NNE
Cosmos 1346 Rocket 2.9 02:14:57 34° SW 02:16:08 49° WNW 02:19:42 10° N
H-2A R/B 3.5 02:13:14 10° NNE 02:17:57 32° E 02:22:30 10° SSE
SL-4 R/B 3.4 02:15:51 10° WNW 02:18:32 25° NNW 02:21:11 10° NE
Cosmos 1605 Rocket 4.2 02:14:29 10° N 02:20:48 76° E 02:26:59 10° SSE
COSMOS 2441 4.4 02:17:23 10° NNE 02:22:17 81° ESE 02:25:39 20° S
Cosmos 371 Rocket 3.3 02:23:01 25° SSW 02:25:49 71° WNW 02:30:38 10° NNE
Cosmos 1763 Rocket 3.3 02:22:01 10° NNW 02:27:06 77° WSW 02:32:06 10° SSE
Cosmos 304 Rocket 4.0 02:25:25 24° SW 02:28:07 58° WNW 02:32:50 10° NNE
Cosmos 1809 Rocket 4.5 02:23:30 18° S 02:28:18 89° WNW 02:34:31 10° N
Lacrosse 4 Rocket 2.6 02:27:52 10° NW 02:31:13 23° WSW 02:31:49 22° WSW
Cosmos 2297 Rocket 3.2 02:29:35 10° NNW 02:35:07 50° ENE 02:40:35 10° SE
Cosmos 1535 Rocket 4.5 02:30:44 10° N 02:37:02 78° W 02:43:14 10° S
Cosmos 2369 Rocket 4.3 02:34:12 10° W 02:37:26 15° NW 02:40:42 10° N
Cosmos 1025 Rocket 3.0 02:34:41 18° S 02:37:49 90° SE 02:42:12 10° N
OPS 8737 4.2 02:34:56 10° NW 02:38:03 82° NE 02:41:12 10° SE
MOZ.5/SAFIR/RUBIN 5/SL-8 3.7 02:35:44 10° S 02:40:18 78° WSW 02:44:57 10° NNW
FENGYUN 3A 4.2 02:37:50 10° N 02:42:54 44° WNW 02:46:39 17° SW
USA 276 4.3 02:40:33 10° NW 02:43:04 25° N 02:45:41 10° ENE
Lacrosse 5 rocket 4.1 02:43:06 10° NNW 02:45:08 15° NNE 02:47:07 10° ENE
CZ-2D R/B 2.6 02:39:52 10° NNE 02:45:17 63° ESE 02:50:37 10° S
ADEOS Rocket 3.8 02:42:42 10° N 02:48:24 37° WNW 02:52:44 15° SW
DMSP B5D2-2 4.1 02:46:04 10° S 02:51:17 69° WSW 02:56:33 10° NNW
ATLAS 3B R/B 4.0 02:46:09 10° S 02:53:00 39° ESE 03:00:07 10° NE
NOSS 2-2 (C) 3.6 02:50:40 10° NW 02:54:34 70° SW 02:59:58 10° SSE
ALOS 2.3 02:50:07 10° NNE 02:54:41 77° ESE 02:59:09 10° S
Cosmos 468 Rocket 3.9 02:52:55 10° NNW 02:58:03 84° WSW 03:03:09 10° SSE
SL-24 DEB 4.3 02:54:34 13° SSW 02:58:24 54° W 03:02:45 10° NNW
Cosmos 2360 4.3 02:54:41 15° SW 02:59:21 69° WNW 03:05:04 10° NNE
Cosmos 1455 Rocket 3.6 03:01:27 10° N 03:05:43 59° E 03:09:59 10° SSE
Cosmos 1153 Rocket 4.5 03:00:43 10° N 03:06:57 85° W 03:13:06 10° S
Cosmos 405 Rocket 3.5 03:06:51 15° WSW 03:08:27 23° WNW 03:10:53 10° NNW
Cosmos 2292 Rocket 2.6 03:06:53 12° S 03:09:33 82° W 03:12:49 10° N
Cosmos 2084 Rocket 3.6 03:07:47 12° SSW 03:11:19 61° ESE 03:15:20 10° NE
Okean 2 Rocket 3.3 03:08:45 10° NNW 03:13:00 51° W 03:17:13 10° S
Cosmos 374 Rocket 4.2 03:09:55 13° SW 03:13:25 85° NW 03:17:12 10° NE
Envisat 3.4 03:08:40 10° N 03:13:35 51° WNW 03:18:23 10° SW
SeaSat 1 2.4 03:10:39 10° SSE 03:15:32 77° WSW 03:20:28 10° NNW
SJ 16-02 2.6 03:16:15 11° WSW 03:19:39 26° WNW 03:23:13 10° N
CENTAUR R/B 3.6 03:11:18 10° NW 03:19:44 79° NE 03:29:17 10° SE
Cosmos 1727 Rocket 4.0 03:13:45 10° S 03:19:59 79° W 03:26:13 10° N
BREEZE-M DEB (TANK) 4.1 03:14:20 10° W 03:24:18 46° N 03:27:30 10° ENE
USA 229 DEB 3.6 03:18:28 10° SSW 03:24:19 74° ESE 03:30:54 10° NE
USA 229 3.6 03:18:31 10° SSW 03:24:21 73° ESE 03:30:56 10° NE
Cosmos 292 Rocket 4.1 03:23:08 10° S 03:27:51 68° ESE 03:32:34 10° NNE
Cosmos 968 Rocket 4.0 03:22:57 10° S 03:28:04 60° ESE 03:33:14 10° NNE
Meteor 2-16 Rocket 4.5 03:22:13 10° SSW 03:28:17 71° W 03:34:22 10° N
Cosmos 1862 3.2 03:26:17 10° S 03:29:48 76° E 03:33:21 10° NNE
Cosmos 2221 Rocket 4.3 03:28:06 10° SW 03:32:18 39° WNW 03:36:34 10° N
SL-16 R/B 3.3 03:26:28 10° SE 03:32:30 57° ENE 03:38:31 10° N
Cosmos 1459 Rocket 4.1 03:26:47 10° N 03:32:59 87° E 03:39:15 10° S
Cosmos 841 Rocket 3.5 03:28:12 10° NNW 03:33:27 84° WSW 03:38:36 10° SSE
Cosmos 2173 Rocket 4.1 03:27:40 10° N 03:34:02 86° W 03:40:16 10° S
METEOR-M 4.2 03:29:14 10° NNE 03:34:36 86° WNW 03:39:57 10° SSW
Cosmos 1954 Rocket 4.4 03:34:49 10° SW 03:39:50 50° WNW 03:44:51 10° N
NOSS 2-2 (E) 3.6 03:36:49 10° NW 03:40:41 84° SW 03:46:03 10° SSE
ADEOS II 2.3 03:36:47 10° N 03:41:54 57° WNW 03:47:00 10° SSW
Cosmos 2100 Rocket 4.0 03:36:14 10° NNW 03:42:30 72° W 03:48:39 10° S
